Regional Weather Roundup
Issued by NWS Wakefield, VA

Home | Current Version | Previous Version | Text Only | Print | Product List | Glossary On
Versions: 1 2 3 4 5 6 7 8 9 10 11 12 13 14 15 16 17 18 19 20 21 22 23 24 25 26 27 28 29 30 31 32 33 34 35 36 37 38 39 40 41 42 43 44 45 46 47 48 49 50
000
ASUS41 KAKQ 260515
RWRAKQ

REGIONAL WEATHER ROUNDUP
NATIONAL WEATHER SERVICE WAKEFIELD VA
100 AM EDT SUN APR 26 2015

Note: "fair" indicates few or no clouds below 12,000 feet with no
significant weather and/or obstructions to visibility. * = Denotes
station may not report precipitation (e.g., rain,snow,etc.),
thunder or fog.

VAZ042-051-052>054-056-260600-
NORTHERN VIRGINIA

CITY           SKY/WX    TMP DP  RH WIND       PRES   REMARKS
WASH NATIONAL  CLOUDY    46  39  76 E3        29.73F
DULLES         CLOUDY    41  38  89 CALM      29.72F
FORT BELVOIR   MOCLDY    41  39  93 CALM      29.72F
QUANTICO       CLOUDY    43  39  86 N6        29.74F
FREDERICKSBRG* DRIZZLE   43  43 100 N3        29.72F
STAFFORD*      RAIN      41  32  70 N3        29.77F
WARRENTON      CLOUDY    41  40  97 NE3       29.72S
CULPEPER*      CLOUDY    43  41  93 NE3       29.72F
MANASSAS*      CLOUDY    41  39  93 CALM      29.73S
LEESBURG*      CLOUDY    41  41 100 S5        29.71F
WINCHESTER     CLOUDY    41  36  81 S7        29.69F FOG
FRONT ROYAL*   CLOUDY    37  37 100 CALM      29.70F
LURAY*         CLOUDY    41  41 100 N6        29.70F FOG
$$

VAZ048-049-060>072-079>083-260600-
CENTRAL AND SOUTH CENTRAL VIRGINIA

CITY           SKY/WX    TMP DP  RH WIND       PRES   REMARKS
RICHMOND       LGT RAIN  46  43  89 N8        29.70F FOG
CHESTERFIELD*  CLOUDY    45  34  65 N6        29.71S
PETERSBURG*    LGT RAIN  47  46  95 N6        29.70S
HANOVER        CLOUDY    44  42  93 CALM      29.72S FOG
TAPPAHANNOCK*  DRIZZLE   46  42  89 NE5       29.72S
QUINTON*       CLOUDY    45  44  97 NW5       29.70S
CHARLOTTSVILLE CLOUDY    41  39  93 NE7       29.70F FOG
GORDONSVILLE*  CLOUDY    40  39  97 NE3       29.71S FOG
ORANGE*        CLOUDY    41  41 100 N3        29.73S FOG
LOUISA*        CLOUDY    43  41  93 N3        29.70F FOG
BUMPASS*       CLOUDY    41  40  97 CALM      29.71F
FARMVILLE*     CLOUDY    44  44 100 NE9       29.68F FOG
CREWE*         CLOUDY    44  42  95 N5        29.69S
FORT PICKETT*  CLOUDY    44  44  98 NE7       29.69S
CHASE CITY*    CLOUDY    46  46 100 CALM      29.67S
CLARKSVILLE*   CLOUDY    45  43  93 NE6       29.66F
SOUTH HILL*    CLOUDY    43  43  98 CALM      29.73S
LAWRENCEVILLE* CLOUDY    45  44  99 NE5       29.67S
EMPORIA*       CLOUDY    45  45 100 N3        29.69S
$$

VAZ088>098-260600-
SOUTHEAST VIRGINIA

CITY           SKY/WX    TMP DP  RH WIND       PRES   REMARKS
NORFOLK        RAIN      48  45  89 E8        29.64F
VIRGINIA BEACH LGT RAIN  49  46  90 NE8       29.64F FOG
NORFOLK NAVAL  LGT RAIN  51  46  83 NE14      29.68F
WEST POINT*    CLOUDY    48  46  93 N3        29.71F
SALUDA*        CLOUDY    46  45  94 N8        29.70F
NEWPORT NEWS   CLOUDY    50  46  86 NE5       29.68S
LANGLEY AFB    CLOUDY    47  46  94 NE10      29.67R
FORT EUSTIS    CLOUDY    46  46 100 NE3       29.66S
WILLIAMSBURG*  CLOUDY    48  48 100 NE3       29.70S
HR EXEC AP*    CLOUDY    50  45  81 NE7       29.67F
FRANKLIN*      CLOUDY    46  46  99 N6        29.68F FOG
WAKEFIELD      CLOUDY    47  45  93 VRB5      29.68R
$$

VAZ020-022-025-037-045-260600-
WEST CENTRAL AND SOUTHWEST VIRGINIA

CITY           SKY/WX    TMP DP  RH WIND       PRES   REMARKS
STAUNTON*      CLOUDY    41  39  91 NE5       29.70F
WAYNESBORO*    CLOUDY    39  38  99 CALM      29.68S
HOT SPRINGS VA SNOW      35  35 100 CALM      29.61R VSB<1/4
LYNCHBURG      CLOUDY    40  39  97 NE8       29.68F
DANVILLE       CLOUDY    44  41  89 NE7       29.67F
SOUTH BOSTON*  CLOUDY    43  42  95 N3        29.69R
MARTINSVILLE   CLOUDY    43  43 100 NE3       29.68F FOG
ROANOKE        CLOUDY    43  41  93 CALM      29.70R
BLACKSBURG     RAIN      38  38  99 CALM      29.69R
DUBLIN*        CLOUDY    41  41 100 N3        29.66R FOG
MARION*        LGT RAIN  45  43  93 E9        29.62F
HILLSVILLE*    FOG       46  46  99 CALM      29.62S VSB 3/4
RICHLANDS*     RAIN      52  49  90 E7G16     29.59R
WISE*          TSTM      54  54 100 NE7       29.59R
ABINGDON*      RAIN      58  51  80 CALM      29.55R
$$

MDZ021>025-VAZ099-100-260600-
SOUTHERN MARYLAND AND THE DELMARVA PENINSULA

CITY           SKY/WX    TMP DP  RH WIND       PRES   REMARKS
PATUXENT RIVER CLOUDY    44  40  85 NE12      29.72S
BAY BRIDGE APT   N/A    N/A N/A N/A S6        29.71F
LEONARDTOWN    CLOUDY    43  41  93 CALM      29.73F
DOVER          CLOUDY    45  42  90 W5        29.64F
GEORGETOWN     CLOUDY    42  40  92 SW5       29.71F
EASTON         DRIZZLE   44  44 100 SW6       29.75F
CAMBRIDGE      MOCLDY    45  41  87 NE6       29.72S
SALISBURY      CLOUDY    43  41  93 N6        29.71F
OCEAN CITY     CLOUDY    43  39  86 N6        29.71F
WALLOPS ISLAND CLOUDY    44  43  96 N7        29.70S
ACCOMACK*      CLOUDY    43  32  65 N6        29.70R
$$

NCZ012>017-030>032-260600-
NORTH CENTRAL AND EASTERN NORTH CAROLINA

CITY           SKY/WX    TMP DP  RH WIND       PRES   REMARKS
ROANOKE RAPIDS CLOUDY    45  45 100 N7        29.67R FOG
RALEIGH        FOG       48  47  96 NE7       29.65F VSB 1/2
ELIZABETH CITY LGT RAIN  50  49  96 N17       29.64S FOG
AHOSKIE*       DRIZZLE   46  45  97 NE6       29.65F
EDENTON*       DRIZZLE   50  49  97 N7        29.63S
CURRITUCK*     CLOUDY    50  48  93 N16       29.65S
KILL DEVIL HLS CLOUDY    53  53 100 N8        29.60R FOG
MANTEO         CLOUDY    54  53  99 NE8       29.59S
CAPE HATTERAS  CLOUDY    57  57 100 VRB6      29.56S
TARBORO*       CLOUDY    50  49  94 N7        29.66R FOG
GOLDSBORO      CLOUDY    56  56  99 N6        29.61  FOG
WASHINGTON     CLOUDY    52  52  97 NE5       29.61F FOG
GREENVILLE     CLOUDY    54  54 100 N5        29.66S FOG
NEW BERN       CLOUDY    60  58  92 N5        29.61S
WILMINGTON     CLOUDY    67  66  97 W5        29.60F
$$

VAZ048-260600-
ELSEWHERE

CITY           SKY/WX    TMP DP  RH WIND       PRES   REMARKS
HARRISBURG PA  MOCLDY    44  31  60 NW7       29.70R
BALTIMORE      CLOUDY    42  39  89 CALM      29.71R
ANNAPOLIS      LGT RAIN  44  40  85 S9        29.70F
ANDREWS AFB    CLOUDY    42  41  97 NE3       29.71S
PHILADELPHIA   CLOUDY    48  37  65 W7        29.69F
HENDERSON NC   CLOUDY    45  43  95 NE8       29.66F FOG
GREENSBORO     DRIZZLE   45  44  97 NE10      29.63F FOG
ROCKY MOUNT    CLOUDY    50  49  96 N9        29.64F FOG
$$

VAZ100-260600-
MARINE

STATION/POSITION TIME  TEMP    WIND        PRES    WAVE   SWELL
                       AIR SEA DIR/SP/G            HT/PER HT/PER
                 (UTC) (F)     (DEG/KT/KT) (MB)    (FT/S) (FT/S)
BRANDYWINE LGT   0412   46 51  290/  9/ 11 1006.0F
CAPE MAY NJ      0412   47 55  310/  5/ 10 1005.6F
LEWES DE         0412   44 51  200/  5/  6 1005.9F
15NM E FENWICK I 0450   44 47              1005.3F   1
OCEAN-CITY-INLET 0412   45 50   10/ 11/ 13 1005.8F
WACHAPREAGUE VA  0400   45 54   20/  8/ 12 1005.2F
THOMAS POINT MD  0500   45 52  170/  9/ 10 1006.7F
GOOSES REEF MD   0500   45 53   50/ 12/ 16   N/A
COVE POINT MD    0412   45      40/ 13/ 16 1007.1F
SOLOMONS ISLAND  0412      54                N/A
BISHOPS HEAD MD  0412   45 54   20/  8/ 13 1005.8F
PINEY POINT MD   0400           30/  6/  8   N/A
CAMBRIDGE MD     0412   45 58   20/  8/ 11 1006.3F
LEWISETTA VA     0400   47 57              1005.8F
RAPPAHANNOCK LGT 0400           40/ 14/ 15 1005.8F
YORK RVR RNG VA  0412   48      70/ 13/ 15 1004.3S
YORKTOWN VA      0412   48 59   50/ 11/ 13 1004.8F
JAMESTOWN VA     0500   46 63   40/  4/  6 1004.3R
DOMINION TERM VA 0412   48      20/  8/ 12 1005.5R
KIPTOPEKE VA     0400      61   50/  7/ 11   N/A
CHES BAY BRIDGE  0412   47 54   30/ 18/ 19 1003.9F
CAPE HENRY VA    0400   47      20/ 21/ 23 1004.2R
CHESAPEAKE LGHT  0400   46      30/ 21/ 22 1005.1S
WILLOUBY STN VA  0400   48      40/ 14/ 16 1005.4R
S CRANEY ISL VA  0412           40/ 11/ 13 1004.9F
CAPE HENRY BUOY  0428      51                N/A     3/ 4
1ST LANDING BUOY 0500                      1004.4F   3/ 3
OFFSHORE WE BUOY 0411      50                N/A     3/ 4   2/12
64NM E OF VA BCH 0450   54 58   30/ 19/ 21 1002.4R   3/ 4   2/11
DUCK PIER NC     0412   52 54   50/ 12/ 14 1001.4F
44056 DUCK FRF   0411      54                N/A     4/ 5
OREGON INLET NC  0412   54 59   40/  9/ 12 1001.3F
HATTERAS NC      0412   60 65   20/  7/ 11 1000.5F
DIAMOND SHLS NC  0450   66 76  330/ 10/ 14 1000.1F   5/ 7   5/ 7
CAPE LOOKOUT NC  0500   64     290/ 13/ 15 1001.3R
$$



USA.gov is the U.S. government's official web portal to all federal, state and local government web resources and services.